STARLINK-1080, 44961

Orbit data source: Space-Track

STARLINK-1080, 44961 is a payload satellite owned by SpaceX/Seattle (US) in LEO that was launched on Tue, 07 Jan 2020 UTC via an FALCON 9 launch vehicle from the Air Force Eastern Test Range (AFETR). Payload-class satellites include a variety of spacecraft equipped with specific instruments for various scientific and technological missions. These include communications satellites like Starlink; space stations such as the ISS; scientific satellites like the Hubble; Earth observation satellites from companies like Planet Labs, Umbra, and HawkEye 360; GPS; miniature CubeSats for education and research; and military/defense satellites.

Loading next visibility...
Identifier
44961, 2020-001AZ
Orbit
LEO
Country
Flag of USUS
Related business
Manufacturer
SpaceX/Seattle
Mission
Operational Commercial Communications
Bus & Motor
STARLINK, Unknown motor
Mass
260 kg wet, ~248 kg dry
Launch date (UTC)
2020-01-07 (6 years ago)
Launch vehicle
FALCON 9
Launch site
Air Force Eastern Test Range (AFETR)
Object type
Payload
Rocket body
Debris
Shape & HBR
Box + 1 Pan, 10.1 m
Radar Cross Section
13.562 m², Large (>1 m²)

Expand to show TLE details & history
Last TLE update: 23 hours ago

TLE from 23 hours ago
0 STARLINK-1080
1 44961U 20001AZ  25340.34012706  .00006001  00000-0  42149-3 0  9994
2 44961  53.0548   5.6810 0001297  80.2261 279.8875 15.06391449326345
Epoch: 2025-12-06T08:09Z
TLE epoch observation values (Epoch: 2025-12-06T08:09:46.977Z)
Latitude
0.00005°
Longitude
167.86602°
Altitude
547.963 km
Speed
7.589 km/s
True Right ascension
00h 22m 43s
True Declination
0° 00' 00"
Sunlit
Object was in daylight at epoch
Visualization orbit readout
Latitude
Unknown
Longitude
Unknown
Altitude
Unknown
Speed
Unknown
Apparent Right ascension
Unknown
Apparent Declination
Unknown
Sunlit
N/A
Visualization observer readout
Local Sidereal Time
04:48:04
Azimuth
Unknown
Elevation
Unknown
Doppler factor
Unknown
Orbital elements
Apogee altitude
548.407 km
Perigee altitude
546.61 km
Semi-major axis
6,925.645 km
Eccentricity
0.00013
Inclination
53.0548°
RAAN
5.681°
Arg. of periapsis
80.2261°
True anomaly
279.87286°
Mean anomaly
279.8875°
Eccentric anomaly
279.88018°
Mean motion
3.76576 °/min
Orbital period
95.6 mins
BSTAR
0.00042149
Loading maneuver chart data...
Computing Atmospheric mass density...

Documentation

Showing up to 5 results
|